Crestview, FL

10:52 AM CDT on July 25, 2016 (GMT -0500)
Sikes | | Change Station

Elev 213 ft 30.78 °N, 86.52 °W | Updated 59 minutes ago

Partly Cloudy
Partly Cloudy
87 °F
Feels Like 94 °F
N
7
Wind Variable Wind from ESE

Today
High -- | Low -- °F
--% Chance of Precip.
Yesterday
High -- | Low -- °F
Precip. -- in
Pressure 30.05 in
Visibility 10.0 miles
Clouds Few 2900 ft
Heat Index 94 °F
Dew Point 73 °F
Humidity 63%
Rainfall 0.00 in
Snow Depth Not available.
5:59 AM 7:45 PM
Waning Gibbous, 65% visible
METAR KCEW 251453Z AUTO 12006KT 10SM FEW029 31/23 A3006 RMK AO2 SLP175 T03060228 51006
Pressure 30.05 in
Visibility 10.0 miles
Clouds Few 2900 ft
Heat Index 94 °F
Dew Point 73 °F
Humidity 63%
Rainfall 0.00 in
Snow Depth Not available.
5:59 AM 7:45 PM
Waning Gibbous, 65% visible
METAR KCEW 251453Z AUTO 12006KT 10SM FEW029 31/23 A3006 RMK AO2 SLP175 T03060228 51006

10-Day Weather Forecast

Almanac

Astronomy

Jul. 25, 2016 Rise Set
Actual Time
Civil Twilight
Nautical Twilight
Astronomical Twilight
Moon
Length of Visible Light
Length of Day
Tomorrow will be .
, % of the Moon is Illuminated

Today's Extremes

State Highs State Lows

Community

WunderPhotos

Upload Photos

1,927,329 photos uploaded!

WunderBlog® & News

Nearby

Air Quality

  Air Quality AQ Index Pollutant
Not available.

Snow Depth

Station Depth Elevation

Earthquake Activity

City Distance Mag. Time & Date
Minimum magnitude displayed is 2.5.

Coastal Water Temperatures

Place Temperature

Stations

Nearby Weather Stations

Station Location Temp. Windchill Dew Point Humidity Wind Precip. Elev Updated Type
                   

Watches & Warnings

There are currently no watches in effect.